[[{"header":{"parameterUnit":"m.s-1","parameterCategory":1,"la1":30.2991,"la2":30.254,"lo1":-89.0895,"lo2":-89.0444,"dy":0.0017,"dx":0.0017,"nx":28,"ny":28,"refTime":"2025-05-19T09:00:00:Z","depth":0,"parameterNumber":2,"parameterNumberName":"U-component_of_WINDS"},"data":[0,0,0,0,0,0,0,0,0,0,0,0,0,0,0,0,0,0,0,0,0,0,0,0,0,0,0,0,0,0,0,0,0,0,0,0,0,0,0,0,0,0,0,0,0,0,0,0,0,0,0,0,0,0,0,0,0,0,-0.899,-0.8989,0,-0.8939,-0.8938,-0.8938,-0.8903,-0.8903,-0.8903,-0.8903,-0.8849,-0.8848,-0.8847,0,0,0,0,0,0,0,0,0,0,0,0,0,-0.9059,-0.9058,-0.899,-0.8989,-0.8989,-0.8939,-0.8938,-0.8937,-0.8903,-0.8903,-0.8903,-0.8903,-0.885,-0.8848,-0.8847,0,0,0,0,0,0,0,0,0,0,0,0,0,-0.902,-0.9057,-0.899,-0.8966,-0.8963,-0.8939,-0.8938,-0.8937,-0.8903,-0.8903,-0.8903,-0.8902,-0.885,-0.8849,-0.8847,-0.8843,0,0,-0.8841,-0.8841,0,0,0,0,0,0,0,0,-0.9022,-0.9018,-0.897,-0.8967,-0.8964,-0.8927,-0.8943,-0.8905,-0.8904,-0.8926,-0.8903,-0.8902,-0.8876,-0.8872,-0.8863,-0.884,-0.8838,-0.8841,-0.884,-0.8839,-0.8839,0,0,0,0,0,0,0,-0.9025,-0.902,-0.897,-0.8969,-0.8966,-0.8957,-0.8952,-0.8936,-0.8903,-0.8924,-0.8921,-0.8916,-0.8874,-0.8865,-0.8861,-0.8837,-0.8841,-0.884,-0.8838,-0.8838,-0.8809,-0.881,0,0,0,0,0,0,-0.9032,-0.9022,-0.8971,-0.8968,-0.8993,-0.8956,-0.895,-0.8939,-0.8903,-0.8898,-0.8916,-0.8914,-0.8868,-0.8863,-0.8859,-0.8853,-0.8839,-0.8838,-0.8837,-0.8809,-0.8809,-0.881,0,0,0,0,0,0,-0.9033,-0.9027,-0.8973,-0.8994,-0.8987,-0.8956,-0.8944,-0.8939,-0.8929,-0.8898,-0.8892,-0.8913,-0.8867,-0.8862,-0.8847,-0.885,-0.8837,-0.8835,-0.8809,-0.8809,-0.881,-0.8839,0,0,0,0,0,0,-0.9035,-0.9028,-0.9026,-0.8995,-0.8986,-0.8962,-0.8944,-0.8938,-0.8926,-0.8923,-0.8893,-0.8887,-0.8867,-0.885,-0.8846,-0.8847,-0.8834,-0.8808,-0.8809,-0.8809,-0.8838,-0.884,-0.8843,0,0,0,0,0,-0.9038,-0.9036,-0.9026,-0.902,-0.8983,-0.8963,-0.8958,-0.8934,-0.8927,-0.8924,-0.8904,-0.8888,-0.8851,-0.8849,-0.8843,-0.8845,-0.8808,-0.8809,-0.8809,-0.8836,-0.884,-0.8843,0,0,0,0,0,0,-0.9069,-0.9032,-0.902,-0.9008,-0.8989,-0.8957,-0.8953,-0.8939,-0.8921,-0.8919,-0.8891,-0.8884,-0.8872,-0.8857,-0.8856,-0.8839,-0.8827,-0.8827,-0.885,-0.8853,-0.8855,-0.8859,-0.8832,0,0,0,0,0,-0.9074,-0.9061,-0.9029,-0.9022,-0.9013,-0.8985,-0.8975,-0.8959,-0.8938,-0.8929,-0.8908,-0.8888,-0.8871,-0.8861,-0.8844,-0.8835,-0.8828,-0.8834,-0.8836,-0.8838,-0.8839,-0.8833,-0.8835,-0.8812,-0.8812,-0.8812,0,0,-0.9085,-0.9063,-0.9057,-0.9027,-0.901,-0.8997,-0.8978,-0.8965,-0.8955,-0.8927,-0.8912,-0.8896,-0.8872,-0.886,-0.8854,-0.8847,-0.8843,-0.8839,-0.8841,-0.884,-0.8834,-0.8836,-0.8838,-0.8813,-0.8813,-0.8812,0,0,-0.9099,-0.9081,-0.9073,-0.9056,-0.9031,-0.9013,-0.9011,-0.8981,-0.897,-0.8954,-0.8933,-0.8921,-0.8894,-0.8877,-0.8865,-0.8874,-0.8858,-0.8869,-0.8883,-0.8878,-0.888,-0.8881,-0.8884,-0.8886,-0.8869,-0.8869,-0.8869,0,-0.9116,-0.9095,-0.9071,-0.9059,-0.9047,-0.9021,-0.9013,-0.8999,-0.8969,-0.8962,-0.8954,-0.892,-0.8901,-0.8886,-0.8888,-0.8879,-0.8877,-0.8872,-0.8881,-0.8883,-0.8884,-0.8887,-0.8888,-0.8871,-0.8871,-0.887,-0.887,0,-0.9117,-0.9104,-0.91,-0.9073,-0.9061,-0.9051,-0.9025,-0.9015,-0.9001,-0.8983,-0.8968,-0.8946,-0.8924,-0.8919,-0.8904,-0.8902,-0.8898,-0.8887,-0.8874,-0.8888,-0.889,-0.8891,-0.8873,-0.8872,-0.8872,-0.8872,0,0,-0.9148,-0.9108,-0.9108,-0.9095,-0.9066,-0.9055,-0.9044,-0.9023,-0.9016,-0.8997,-0.8987,-0.8965,-0.8954,-0.8941,-0.8924,-0.8919,-0.8928,-0.8908,-0.8907,-0.8913,-0.8925,-0.8934,-0.8936,-0.8918,-0.8918,-0.8918,-0.8927,0,-0.9158,-0.9137,-0.9115,-0.9103,-0.909,-0.9066,-0.9057,-0.9038,-0.9021,-0.9008,-0.899,-0.8975,-0.8961,-0.8953,-0.8948,-0.8928,-0.893,-0.8927,-0.8909,-0.8908,-0.8916,-0.8937,-0.8946,-0.8956,-0.8927,-0.8928,-0.8928,0,-0.9166,-0.9149,-0.9135,-0.9107,-0.9101,-0.9093,-0.9073,-0.9061,-0.9039,-0.9027,-0.9013,-0.8995,-0.8983,-0.8972,-0.8954,-0.8953,-0.8944,-0.8933,-0.8933,-0.8931,-0.8919,-0.8935,-0.8958,-0.896,-0.8929,-0.8929,-0.8929,0,-0.9191,-0.9164,-0.9152,-0.9142,-0.911,-0.9105,-0.9091,-0.9069,-0.9058,-0.904,-0.9033,-0.9014,-0.9004,-0.8989,-0.8967,-0.8961,-0.8952,-0.8939,-0.8943,-0.8943,-0.8942,-0.8942,-0.8964,-0.8936,-0.8936,-0.8936,-0.8936,0,-0.9204,-0.9197,-0.9163,-0.9156,-0.9147,-0.9122,-0.9114,-0.9098,-0.9079,-0.9068,-0.9046,-0.9037,-0.9008,-0.8995,-0.8977,-0.8966,-0.8961,-0.8952,-0.8947,-0.8954,-0.8955,-0.8948,-0.8947,-0.8936,-0.8936,-0.8936,-0.8936,0,-0.923,-0.9207,-0.9193,-0.9164,-0.9156,-0.9151,-0.9126,-0.9118,-0.9101,-0.9088,-0.9083,-0.9056,-0.904,-0.9016,-0.8992,-0.8981,-0.8972,-0.8965,-0.898,-0.8977,-0.8982,-0.8982,-0.9,-0.9001,-0.8972,-0.8972,-0.8973,0,-0.924,-0.9234,-0.9204,-0.9196,-0.9183,-0.917,-0.9159,-0.9134,-0.9123,-0.9098,-0.9094,-0.9076,-0.9061,-0.9036,-0.9014,-0.8996,-0.8988,-0.8995,-0.8985,-0.8992,-0.8988,-0.8989,-0.8989,-0.8998,-0.8998,-0.8999,-0.8999,0,-0.9261,-0.925,-0.9235,-0.9217,-0.9204,-0.9188,-0.9171,-0.9166,-0.9137,-0.9127,-0.911,-0.9098,-0.9075,-0.9057,-0.9036,-0.9022,-0.9006,-0.9002,-0.9002,-0.9009,-0.9019,-0.9014,-0.8987,-0.9002,-0.9002,-0.9002,-0.9001,-0.9001,-0.928,-0.9273,-0.9252,-0.9236,-0.9221,-0.9205,-0.9197,-0.9179,-0.9165,-0.9144,-0.913,-0.9114,-0.9093,-0.9063,-0.905,-0.9037,-0.903,-0.903,-0.903,-0.903,-0.9033,-0.902,-0.9033,-0.9033,-0.9033,-0.9033,-0.9033,0,-0.93,-0.9285,-0.927,-0.9248,-0.9235,-0.9221,-0.9202,-0.9193,-0.918,-0.9161,-0.9147,-0.9128,-0.9111,-0.9088,-0.9069,-0.9064,-0.9056,-0.906,-0.906,-0.9057,-0.904,-0.9042,-0.9067,-0.9067,-0.9067,-0.9067,-0.9067,-0.9067,-0.9309,-0.9297,-0.9284,-0.9265,-0.925,-0.9235,-0.9225,-0.9211,-0.9196,-0.9176,-0.9163,-0.9148,-0.9127,-0.9107,-0.9092,-0.9085,-0.908,-0.9086,-0.9077,-0.9062,-0.9058,-0.9055,-0.9057,-0.9085,-0.9085,-0.9096,-0.9096,-0.9096]},{"header":{"parameterUnit":"m.s-1","parameterCategory":1,"la1":30.2991,"la2":30.254,"lo1":-89.0895,"lo2":-89.0444,"dy":0.0017,"dx":0.0017,"nx":28,"ny":28,"refTime":"2025-05-19T09:00:00:Z","depth":0,"parameterNumber":3,"parameterNumberName":"V-component_of_WINDS"},"data":[0,0,0,0,0,0,0,0,0,0,0,0,0,0,0,0,0,0,0,0,0,0,0,0,0,0,0,0,0,0,0,0,0,0,0,0,0,0,0,0,0,0,0,0,0,0,0,0,0,0,0,0,0,0,0,0,0,0,4.8815,4.8816,0,4.8895,4.8896,4.8897,4.8867,4.8866,4.8864,4.8862,4.8938,4.8942,4.8945,0,0,0,0,0,0,0,0,0,0,0,0,0,4.863,4.8633,4.8815,4.8816,4.8817,4.8895,4.8896,4.8897,4.8868,4.8866,4.8863,4.8861,4.8937,4.8941,4.8946,0,0,0,0,0,0,0,0,0,0,0,0,0,4.871,4.8634,4.8814,4.8812,4.8812,4.8895,4.8896,4.8898,4.8868,4.8865,4.8863,4.886,4.8936,4.8941,4.8946,4.9035,0,0,4.8963,4.8966,0,0,0,0,0,0,0,0,4.8705,4.8717,4.8811,4.8812,4.8813,4.8869,4.8859,4.8943,4.8869,4.8847,4.8862,4.8859,4.8917,4.8924,4.8945,4.9039,4.9042,4.8964,4.8967,4.897,4.8971,0,0,0,0,0,0,0,4.87,4.8713,4.8846,4.8812,4.8813,4.8804,4.8813,4.8875,4.8896,4.8848,4.8846,4.8857,4.8917,4.8939,4.8946,4.9043,4.8964,4.8969,4.8972,4.8974,4.9214,4.9216,0,0,0,0,0,0,4.8695,4.8709,4.8844,4.8849,4.8752,4.881,4.8819,4.8853,4.8895,4.8899,4.8859,4.8855,4.8931,4.894,4.8949,4.9055,4.897,4.8975,4.8978,4.9211,4.9214,4.9217,0,0,0,0,0,0,4.8691,4.8707,4.884,4.8778,4.8795,4.8816,4.8854,4.8856,4.8879,4.8903,4.8906,4.8879,4.8929,4.8941,4.9014,4.9057,4.8977,4.8982,4.9207,4.9212,4.9216,4.9268,0,0,0,0,0,0,4.8686,4.8706,4.8741,4.8779,4.8798,4.8906,4.8857,4.886,4.8889,4.8885,4.8922,4.8926,4.8928,4.9006,4.902,4.9063,4.8987,4.9203,4.9209,4.9214,4.9263,4.9274,4.9284,0,0,0,0,0,4.8679,4.8751,4.8743,4.8759,4.8843,4.8909,4.8919,4.8922,4.8893,4.8928,4.8943,4.8925,4.9051,4.9014,4.9029,4.9075,4.92,4.9207,4.9214,4.9258,4.9272,4.9284,0,0,0,0,0,0,4.8714,4.8756,4.8747,4.8834,4.8869,4.8904,4.8947,4.8937,4.8979,4.8972,4.8973,4.8981,4.9057,4.9073,4.9031,4.9163,4.9121,4.9131,4.9149,4.9163,4.9173,4.9167,4.8991,0,0,0,0,0,4.8733,4.8785,4.8818,4.8891,4.8909,4.8926,4.8955,4.8954,4.8989,4.9003,4.9024,4.9056,4.9103,4.9134,4.9178,4.9266,4.9273,4.9305,4.9315,4.9324,4.9332,4.9379,4.9393,4.924,4.924,4.924,0,0,4.877,4.8799,4.8832,4.8899,4.8926,4.8978,4.8938,4.8995,4.9033,4.901,4.9082,4.9098,4.9135,4.9216,4.9252,4.9231,4.9376,4.9332,4.9339,4.9343,4.9388,4.9402,4.9415,4.9244,4.9244,4.9243,0,0,4.8865,4.8893,4.8957,4.8986,4.9027,4.9038,4.9054,4.9092,4.9102,4.9174,4.9159,4.9203,4.9285,4.9311,4.9335,4.9443,4.9427,4.9457,4.9511,4.9557,4.9569,4.958,4.9617,4.9631,4.9465,4.9466,4.9466,0,4.8905,4.8986,4.8991,4.905,4.908,4.9065,4.9129,4.9155,4.9209,4.9229,4.9206,4.9308,4.9331,4.9418,4.9445,4.9465,4.9481,4.9452,4.9567,4.9578,4.9588,4.9624,4.9638,4.9469,4.9469,4.9468,4.9468,0,4.9033,4.9089,4.9136,4.9191,4.9226,4.9287,4.93,4.9334,4.9332,4.9344,4.9417,4.9446,4.9496,4.9517,4.9513,4.9603,4.9589,4.9567,4.9524,4.9606,4.964,4.9653,4.9474,4.9473,4.9472,4.9471,0,0,4.915,4.9209,4.9226,4.9251,4.9297,4.9339,4.94,4.9451,4.9481,4.9518,4.9568,4.9638,4.9618,4.9646,4.9645,4.9686,4.9769,4.9659,4.9659,4.9677,4.9869,4.9884,4.99,4.9759,4.9762,4.9764,4.9865,0,4.9248,4.9357,4.9364,4.9461,4.9512,4.95,4.9552,4.9585,4.9599,4.9643,4.9658,4.9707,4.9678,4.9695,4.9734,4.975,4.9807,4.9743,4.9803,4.9806,4.9794,4.9918,4.9934,5.0028,4.9878,4.9881,4.9882,0,4.9376,4.9421,4.9524,4.9564,4.9585,4.9633,4.9681,4.9724,4.9761,4.9768,4.9801,4.9795,4.9855,4.9812,4.9895,4.9852,4.9877,4.9889,4.9892,4.9897,4.9848,4.9924,5.0059,5.0072,4.9903,4.9901,4.99,0,4.945,4.9536,4.9609,4.9631,4.9679,4.9713,4.9734,4.9769,4.9799,4.9841,4.9861,4.9908,4.9933,4.997,4.9976,4.9945,5.0059,5.0016,5.0065,5.0065,5.0088,5.0086,5.0227,5.0107,5.0107,5.0106,5.0106,0,4.9558,4.9621,4.9643,4.9688,4.9758,4.9766,4.9834,4.9853,4.9884,4.9931,4.9923,4.9966,4.9974,5.0019,5.0024,5.0092,5.0103,5.0109,5.011,5.011,5.0109,5.0125,5.0118,5.011,5.0109,5.0109,5.0108,0,4.9652,4.9669,4.9748,4.9788,4.98,4.985,4.9884,4.9926,4.994,4.9999,5.0013,5.0034,5.0087,5.0099,5.016,5.0164,5.0244,5.0238,5.0232,5.0231,5.0279,5.0274,5.0434,5.0455,5.0322,5.0323,5.0324,0,4.9719,4.9768,4.9814,4.9847,4.987,4.9922,4.9954,4.9963,4.9997,5.0044,5.008,5.0132,5.0174,5.0259,5.0279,5.0326,5.0321,5.0374,5.0327,5.0326,5.032,5.0317,5.0322,5.0382,5.0383,5.0384,5.0385,0,4.9835,4.9842,4.989,4.9942,4.9981,5.0022,5.006,5.0086,5.0101,5.0138,5.0194,5.0227,5.0292,5.0343,5.0391,5.0411,5.04,5.04,5.0414,5.0413,5.0407,5.0411,5.0255,5.0396,5.0395,5.0394,5.0394,5.0393,4.9917,4.996,5.0001,5.0054,5.0085,5.0122,5.0164,5.0184,5.0231,5.0286,5.0288,5.0348,5.0384,5.0448,5.0471,5.0517,5.05,5.052,5.0524,5.0529,5.0533,5.0402,5.0525,5.0525,5.0525,5.0525,5.0524,0,5.0033,5.0059,5.0109,5.0164,5.0206,5.0196,5.0238,5.0274,5.0327,5.0363,5.0406,5.0469,5.052,5.0545,5.0594,5.0626,5.0623,5.0639,5.0636,5.064,5.0546,5.0529,5.0641,5.0641,5.0641,5.0641,5.0641,5.0641,5.0098,5.017,5.0182,5.0269,5.0294,5.0355,5.038,5.0413,5.0442,5.0514,5.0557,5.0574,5.0605,5.0657,5.0703,5.0708,5.0726,5.0745,5.0748,5.0659,5.0647,5.0636,5.062,5.0749,5.0749,5.0839,5.084,5.084]}]]